Pratham (41783 NORAD) Tracking and Keplerian Element Data

This shows tracking and keplerian element data for the satellite.

Feedback or suggestion? Click here.




ElementValue
Catalog41783
NamePratham
Epoch Orbit32802
Epoch Day321.58525761
Epoch Year2022
RAAN356.8809
Inclination97.8963
Eccentricity0.0034372
Argument of Perigee51.6815
Mean Anonmoly308.747
Mean Motion14.63506816
Decay Rate3.98E-06
L11 41783U 16059A 22321.58525761 .00000398 00000-0 84923-4 0 9993
L22 41783 97.8963 356.8809 0034372 51.6815 308.7470 14.63506816328025



Live tracking and technical data element details for Pratham (NORAD 41783). Pratham can be tracked NOW for your location showing map with azimuth and elevation plus other details from your city location.







IsCatalogInMostPopularTable: catalog: 41783, numindb: 503
Update: records affected: 1



GetName: 41783 Pratham

Hit Count: updated at: Mon, 28 Nov 2022 05:01:57 GMT